Location: Bosdarros
(43.2167°N, 0.3667°W)
Time: 07:41:37
(UTC+00:00)

Cosmos 2074 Rocket - Pass Details

Date: 22 April 2021
Orbit: 968 x 985 km, 82.9° (Epoch: 07 May)

Event Time Altitude Azimuth Distance (km) Brightness Sun altitude
Rises 23:33:38 0° 353° (N) 3,688 8.1 -33.9°
Reaches altitude 10° 23:36:10 10° 356° (N) 2,739 7.2 -34.0°
Enters shadow 23:41:12 58° 19° (NNE) 1,142 4.4 -34.1°
